Regional Weather Roundup
Issued by NWS Upton, NY

Current Version | Previous Version | Text Only | Print | Product List | Glossary Off
Versions: 1 2 3 4 5 6 7 8 9 10 11 12 13 14 15 16 17 18 19 20 21 22 23 24 25 26 27 28 29 30 31 32 33 34 35 36 37 38 39 40 41 42 43 44 45 46
000 ASUS41 KOKX 220705 RWROKX REGIONAL WEATHER ROUNDUP NATIONAL WEATHER SERVICE NEW YORK NY 200 AM EST MON DEC 22 2014 NOTE: "FAIR" INDICATES FEW OR NO CLOUDS BELOW 12,000 FEET WITH NO SIGNIFICANT WEATHER AND/OR OBSTRUCTIONS TO VISIBILITY. NYZ071-072-176-178-NJZ106-104-220800- NEW YORK CITY METRO AREA CITY SKY/WX TMP DP RH WIND PRES REMARKS CENTRAL PARK CLOUDY 35 29 78 VRB5 30.34S WCI 31 LAGUARDIA APRT CLOUDY 36 30 79 NE5 30.32S WCI 32 KENNEDY INTL CLOUDY 37 31 78 N6 30.33S WCI 32 NEWARK/LIBERTY CLOUDY 35 30 82 N7 30.33S WCI 29 BRNX BOT. GARD N/A N/A N/A N/A N2 30.34R TETERBORO CLOUDY 35 28 75 N5 30.33R WCI 31 $$ NYZ177-179-078>081-220800- LONG ISLAND NEW YORK CITY SKY/WX TMP DP RH WIND PRES REMARKS FARMINGDALE CLOUDY 37 33 85 N8 30.32R WCI 31 ISLIP CLOUDY 37 33 85 N7 30.30S WCI 32 SHIRLEY CLOUDY 37 34 89 N5 30.31F WCI 33 WESTHAMPTON LGT RAIN 36 33 89 NE10 30.32S WCI 28 MONTAUK POINT N/A 40 37 89 NE8 30.32S WCI 34 $$ NYZ052-065-067-220800- HUDSON VALLEY CITY SKY/WX TMP DP RH WIND PRES REMARKS WHITE PLAINS LGT SNOW 33 30 88 N3 30.30S FOG NEWBURGH CLOUDY 30 28 93 E6 30.33S WCI 24 MONTGOMERY CLOUDY 31 26 82 NE5 30.32S WCI 26 POUGHKEEPSIE CLOUDY 33 27 78 N6 30.34S WCI 28 ALBANY CLOUDY 30 23 75 N3 30.37S $$ NJZ001-105-106-008-010-013-015-019>022-104-220800- NEW JERSEY CITY SKY/WX TMP DP RH WIND PRES REMARKS NEWARK/LIBERTY CLOUDY 35 30 82 N7 30.33S WCI 29 TETERBORO CLOUDY 35 28 75 N5 30.33R WCI 31 CALDWELL CLOUDY 33 28 81 CALM 30.33S MORRISTOWN CLOUDY 36 28 75 CALM 30.33S SOMERVILLE CLOUDY 35 27 72 CALM 30.31S SUSSEX CLOUDY 31 26 82 NE7 30.32R WCI 24 ANDOVER N/A 31 26 82 NE5 30.31S WCI 26 TRENTON CLOUDY 33 25 72 CALM 30.32R MILLVILLE PTCLDY 22 19 89 CALM 30.33S ATLANTIC CITY PTCLDY 22 17 81 CALM 30.32S WRIGHTSTOWN CLOUDY 33 26 75 NW2 30.31R TOMS RIVER CLOUDY 34 27 75 CALM 30.33R BELMAR CLOUDY 36 27 69 N6 30.31R WCI 31 $$ PAZ047>061-062-071-220800- EASTERN PENNSYLVANIA CITY SKY/WX TMP DP RH WIND PRES REMARKS PHILADELPHIA PTCLDY 28 21 75 NW6 30.35R WCI 22 ALLENTOWN CLOUDY 30 22 72 CALM 30.32S SCRANTON CLOUDY 30 22 72 CALM 30.29R $$ CTZ002-004>006-009-010-012-RIZ004-006-007-MAZ004-011-015-220800- SOUTHERN NEW ENGLAND IN CT CITY SKY/WX TMP DP RH WIND PRES REMARKS BRADLEY INTL CLOUDY 34 30 85 N5 30.34S WCI 30 HARTFORD CLOUDY 34 30 85 VRB5 30.36R WCI 30 DANBURY CLOUDY 33 28 81 NE3 30.32F WTRBRY/OXFORD CLOUDY 32 27 80 NE5 30.31S WCI 27 BRIDGEPORT CLOUDY 35 32 88 NE8 30.32F WCI 29 MERIDEN CLOUDY 34 30 85 N7 30.34S WCI 28 NEW HAVEN MIX PCPN 37 32 82 N9 30.33R WCI 30 CHESTER CLOUDY 34 32 93 N6 30.32S WCI 29 GROTON CLOUDY 34 32 92 N10 30.32S WCI 26 WILLIMANTIC CLOUDY 34 29 82 N5 30.34S WCI 30 IN RI CITY SKY/WX TMP DP RH WIND PRES REMARKS PROVIDENCE CLOUDY 34 29 82 N5 30.35S WCI 30 BLOCK ISLAND CLOUDY 37 34 87 NE9G17 30.32R WCI 31 WESTERLY CLOUDY 36 31 82 NE5 30.34R WCI 32 IN MA CITY SKY/WX TMP DP RH WIND PRES REMARKS BOSTON CLOUDY 33 26 75 NW8 30.37R WCI 26 WORCESTER CLOUDY 29 26 89 NE6 30.32S WCI 23 WESTFIELD CLOUDY 33 30 88 N5 30.35S WCI 29 PROVINCETOWN CLOUDY 43 37 81 NE6 30.34R NANTUCKET MOCLDY 41 38 89 N7 30.31R $$ ANZ330-335-338-340-345-350-353-355-220800- COASTAL MARINE OBSERVATIONS STATION/POSITION TIME SKY/WX TEMP WIND PRES VSBY WAVE AIR SEA DIR/SP/G HT/PER (UTC) (F) (DEG/KT/KT) (MB) (MI) (FT/S) NY HARB ENTRANCE 0700 38 46 20/ 6/ 10 1027.0 2/ 5 4S FIRE IS 0700 45 N/A 2/ 5 20S FIRE ISLAND 0600 41 49 1026.9 3/ 5 23SW MTP 0700 N/A 5/ 4 HUDSON CANYON 0700 44 55 360/ 4/ 4 1025.4 3/ 8 EXECUTION ROCKS 0700 36 41 30/ 8/ 10 N/A WESTERN LI SOUND 0700 37 30/ 8/ 10 N/A 1 CENTRAL LI SOUND 0600 37 44 30/ 10/ 12 N/A 1/ 3 EASTERN LI SOUND NOT AVBL ROBBINS REEF 0700 35 280/ 5/ 6 1025.6 $$ >>>>>>>>>>>>>>>>>>>>>>>>>>>> KEY <<<<<<<<<<<<<<<<<<<<<<<<<<< > < > SKY/WX - SKY CONDITION/PRESENT WEATHER < > TMP - TEMPERATURE IN FAHRENHEIT < > DP - DEWPOINT IN FAHRENHEIT < > RH - RELATIVE HUMIDITY IN PERCENT < > WIND - DIRECTION AND SPEED IN MPH < > PRES - MEAN SEA LEVEL PRESSURE IN INCHES OF HG < > WCI - WIND CHILL INDEX < > VSB - VISIBILITY IN MILES < > HX - HEAT INDEX < > TC - TEMPERATURE IN CELSIUS < > VRB - VARIABLE WIND DIRECTION < > < >>>>>>>>>>>>>>>>>>>>>>>>>>>> KEY <<<<<<<<<<<<<<<<<<<<<<<<<<<

USA.gov is the U.S. government's official web portal to all federal, state and local government web resources and services.